Flag for U.S.A. Weather past 2 weeks in Kennebunk, Maine, U.S.A.

Now
66 °F

Clear.


Feels Like: 66 °F
Forecast: 55 / 77 °F
Wind: 3 mph from North

Location: Skyhaven Airport

Current Time: May 24, 2015 at 11:39:08 PM

Latest Report: May 24, 2015 at 10:51 PM


Visibility: 10 mi

Pressure: 30.15 "Hg

Humidity: 37%

Dew point: 39 °F

Location of KennebunkLocation

Historic Weather in Kennebunk — Graph

°F

Kennebunk temperature yesterday

Maximum temperature yesterday: 62 °F (at 4:51 PM)
Minimum temperature yesterday: 39 °F (at 4:51 AM)
Average temperature yesterday: 51 °F

Past Weeks' High & Low Weather Summary

 TemperatureHumidityPressure
High88 °F (May 10, 2:51 PM)97% (May 10, 5:00 AM)30.32 "Hg (May 10, 5:00 AM)
Low38 °F (May 15, 4:51 AM)17% (May 14, 4:51 PM)29.62 "Hg (May 12, 3:51 PM)
Average59 °F58%30.03 "Hg
* Reported May 9 9:51 PM — May 24 9:51 PM, Kennebunk, Weather by CustomWeather, © 2015

Note: Actual official high and low records may vary slightly from our data, if they occured in-between our weather recording intervals... More about our weather records

Advertising

Kennebunk weather history for previous 24 hours

 ConditionsComfort  
Time TempWeatherWind HumidityBarometerVisibility
9:51 PM
Sun, May 24
69 °FClear.No wind32%30.14 "Hg10 mi
8:51 PM71 °FSunny.3 mph30%30.11 "Hg10 mi
7:51 PM73 °FSunny.No wind29%30.10 "Hg10 mi
6:51 PM78 °FPassing clouds.No wind25%30.09 "Hg10 mi
5:51 PM80 °FScattered clouds.N/A22%30.09 "Hg10 mi
4:51 PM82 °FPassing clouds.N/A21%30.09 "Hg10 mi
3:51 PM80 °FPassing clouds.8 mph21%30.10 "Hg10 mi
2:51 PM80 °FScattered clouds.8 mph21%30.12 "Hg10 mi
1:51 PM78 °FPartly sunny.10 mph22%30.13 "Hg10 mi
12:51 PM80 °FSunny.9 mph21%30.13 "Hg10 mi
11:51 AM78 °FSunny.10 mph24%30.15 "Hg10 mi
10:51 AM75 °FSunny.7 mph26%30.16 "Hg10 mi
9:51 AM71 °FSunny.N/A29%30.18 "Hg10 mi
8:51 AM64 °FSunny.5 mph33%30.20 "Hg10 mi
7:51 AM57 °FSunny.No wind44%30.19 "Hg10 mi
6:51 AM50 °FSunny.3 mph54%30.19 "Hg10 mi
5:51 AM44 °FClear.No wind65%30.19 "Hg10 mi
4:51 AM45 °FPassing clouds.No wind60%30.19 "Hg10 mi
3:51 AM46 °FPassing clouds.No wind56%30.20 "Hg10 mi
2:51 AM46 °FPassing clouds.No wind56%30.20 "Hg10 mi
1:51 AM47 °FPassing clouds.No wind50%30.21 "Hg10 mi
12:51 AM50 °FClear.No wind44%30.22 "Hg10 mi
11:51 PM
Sat, May 23
49 °FClear.No wind46%30.22 "Hg10 mi
Weather by CustomWeather, © 2015

See weather overviewHow to use our weather pages